﻿測定場所 (Monitoring sites),日付 (Measurement date),時間 (Measurement time),線量率 最大値 (max) μGy/h,線量率 最小値 (min) μGy/h,線量率 平均値 (average) μGy/h,
足立 (Adachi),2013-02-17,23:01～24:00,0.0576,0.0518,0.0545,
足立 (Adachi),2013-02-17,22:01～23:00,0.0585,0.0506,0.0546,
足立 (Adachi),2013-02-17,21:01～22:00,0.0577,0.0505,0.0546,
足立 (Adachi),2013-02-17,20:01～21:00,0.0580,0.0501,0.0546,
足立 (Adachi),2013-02-17,19:01～20:00,0.0585,0.0517,0.0545,
足立 (Adachi),2013-02-17,18:01～19:00,0.0574,0.0511,0.0540,
足立 (Adachi),2013-02-17,17:01～18:00,0.0564,0.0507,0.0541,
足立 (Adachi),2013-02-17,16:01～17:00,0.0585,0.0519,0.0544,
足立 (Adachi),2013-02-17,15:01～16:00,0.0571,0.0516,0.0546,
足立 (Adachi),2013-02-17,14:01～15:00,0.0584,0.0502,0.0543,
足立 (Adachi),2013-02-17,13:01～14:00,0.0596,0.0508,0.0545,
足立 (Adachi),2013-02-17,12:01～13:00,0.0586,0.0506,0.0542,
足立 (Adachi),2013-02-17,11:01～12:00,0.0592,0.0493,0.0542,
足立 (Adachi),2013-02-17,10:01～11:00,0.0592,0.0513,0.0546,
足立 (Adachi),2013-02-17,09:01～10:00,0.0586,0.0506,0.0543,
足立 (Adachi),2013-02-17,08:01～09:00,0.0582,0.0516,0.0546,
足立 (Adachi),2013-02-17,07:01～08:00,0.0581,0.0499,0.0541,
足立 (Adachi),2013-02-17,06:01～07:00,0.0573,0.0512,0.0544,
足立 (Adachi),2013-02-17,05:01～06:00,0.0583,0.0513,0.0545,
足立 (Adachi),2013-02-17,04:01～05:00,0.0580,0.0516,0.0546,
足立 (Adachi),2013-02-17,03:01～04:00,0.0571,0.0514,0.0543,
足立 (Adachi),2013-02-17,02:01～03:00,0.0584,0.0509,0.0545,
足立 (Adachi),2013-02-17,01:01～02:00,0.0584,0.0505,0.0546,
足立 (Adachi),2013-02-17,00:01～01:00,0.0577,0.0521,0.0548,
足立 (Adachi),2013-02-16,23:01～24:00,0.0574,0.0515,0.0544,
足立 (Adachi),2013-02-16,22:01～23:00,0.0579,0.0514,0.0544,
足立 (Adachi),2013-02-16,21:01～22:00,0.0585,0.0514,0.0548,
足立 (Adachi),2013-02-16,20:01～21:00,0.0585,0.0505,0.0548,
足立 (Adachi),2013-02-16,19:01～20:00,0.0577,0.0517,0.0550,
足立 (Adachi),2013-02-16,18:01～19:00,0.0574,0.0516,0.0545,
足立 (Adachi),2013-02-16,17:01～18:00,0.0579,0.0519,0.0544,
足立 (Adachi),2013-02-16,16:01～17:00,0.0585,0.0503,0.0545,
足立 (Adachi),2013-02-16,15:01～16:00,0.0592,0.0516,0.0548,
足立 (Adachi),2013-02-16,14:01～15:00,0.0577,0.0508,0.0544,
足立 (Adachi),2013-02-16,13:01～14:00,0.0577,0.0510,0.0538,
足立 (Adachi),2013-02-16,12:01～13:00,0.0566,0.0500,0.0541,
足立 (Adachi),2013-02-16,11:01～12:00,0.0577,0.0501,0.0543,
足立 (Adachi),2013-02-16,10:01～11:00,0.0571,0.0513,0.0540,
足立 (Adachi),2013-02-16,09:01～10:00,0.0571,0.0505,0.0533,
足立 (Adachi),2013-02-16,08:01～09:00,0.0565,0.0505,0.0532,
足立 (Adachi),2013-02-16,07:01～08:00,0.0565,0.0497,0.0532,
足立 (Adachi),2013-02-16,06:01～07:00,0.0566,0.0496,0.0533,
足立 (Adachi),2013-02-16,05:01～06:00,0.0571,0.0495,0.0533,
足立 (Adachi),2013-02-16,04:01～05:00,0.0577,0.0490,0.0541,
足立 (Adachi),2013-02-16,03:01～04:00,0.0573,0.0511,0.0539,
足立 (Adachi),2013-02-16,02:01～03:00,0.0574,0.0509,0.0543,
足立 (Adachi),2013-02-16,01:01～02:00,0.0562,0.0497,0.0540,
足立 (Adachi),2013-02-16,00:01～01:00,0.0578,0.0503,0.0539,
足立 (Adachi),2013-02-15,23:01～24:00,0.0568,0.0510,0.0538,
足立 (Adachi),2013-02-15,22:01～23:00,0.0574,0.0505,0.0537,
足立 (Adachi),2013-02-15,21:01～22:00,0.0570,0.0503,0.0534,
足立 (Adachi),2013-02-15,20:01～21:00,0.0564,0.0508,0.0537,
足立 (Adachi),2013-02-15,19:01～20:00,0.0576,0.0512,0.0541,
足立 (Adachi),2013-02-15,18:01～19:00,0.0600,0.0527,0.0560,
足立 (Adachi),2013-02-15,17:01～18:00,0.0628,0.0549,0.0588,
足立 (Adachi),2013-02-15,16:01～17:00,0.0682,0.0550,0.0600,
足立 (Adachi),2013-02-15,15:01～16:00,0.0679,0.0590,0.0634,
足立 (Adachi),2013-02-15,14:01～15:00,0.0673,0.0568,0.0621,
足立 (Adachi),2013-02-15,13:01～14:00,0.0605,0.0534,0.0572,
足立 (Adachi),2013-02-15,12:01～13:00,0.0594,0.0527,0.0560,
足立 (Adachi),2013-02-15,11:01～12:00,0.0604,0.0515,0.0555,
足立 (Adachi),2013-02-15,10:01～11:00,0.0581,0.0519,0.0551,
足立 (Adachi),2013-02-15,09:01～10:00,0.0584,0.0514,0.0548,
足立 (Adachi),2013-02-15,08:01～09:00,0.0577,0.0511,0.0549,
足立 (Adachi),2013-02-15,07:01～08:00,0.0594,0.0506,0.0542,
足立 (Adachi),2013-02-15,06:01～07:00,0.0573,0.0521,0.0547,
足立 (Adachi),2013-02-15,05:01～06:00,0.0578,0.0520,0.0553,
足立 (Adachi),2013-02-15,04:01～05:00,0.0597,0.0511,0.0548,
足立 (Adachi),2013-02-15,03:01～04:00,0.0578,0.0502,0.0547,
足立 (Adachi),2013-02-15,02:01～03:00,0.0580,0.0512,0.0548,
足立 (Adachi),2013-02-15,01:01～02:00,0.0583,0.0517,0.0552,
足立 (Adachi),2013-02-15,00:01～01:00,0.0604,0.0528,0.0553,
足立 (Adachi),2013-02-14,23:01～24:00,0.0586,0.0522,0.0548,
足立 (Adachi),2013-02-14,22:01～23:00,0.0588,0.0499,0.0548,
足立 (Adachi),2013-02-14,21:01～22:00,0.0580,0.0509,0.0547,
足立 (Adachi),2013-02-14,20:01～21:00,0.0576,0.0511,0.0542,
足立 (Adachi),2013-02-14,19:01～20:00,0.0574,0.0515,0.0543,
足立 (Adachi),2013-02-14,18:01～19:00,0.0566,0.0507,0.0540,
足立 (Adachi),2013-02-14,17:01～18:00,0.0588,0.0489,0.0537,
足立 (Adachi),2013-02-14,16:01～17:00,0.0568,0.0505,0.0540,
足立 (Adachi),2013-02-14,15:01～16:00,0.0577,0.0499,0.0536,
足立 (Adachi),2013-02-14,14:01～15:00,0.0570,0.0495,0.0540,
足立 (Adachi),2013-02-14,13:01～14:00,0.0573,0.0506,0.0541,
足立 (Adachi),2013-02-14,12:01～13:00,0.0560,0.0513,0.0538,
足立 (Adachi),2013-02-14,11:01～12:00,0.0588,0.0507,0.0540,
足立 (Adachi),2013-02-14,10:01～11:00,0.0565,0.0497,0.0530,
足立 (Adachi),2013-02-14,09:01～10:00,0.0576,0.0503,0.0539,
足立 (Adachi),2013-02-14,08:01～09:00,0.0572,0.0497,0.0532,
足立 (Adachi),2013-02-14,07:01～08:00,0.0548,0.0493,0.0525,
足立 (Adachi),2013-02-14,06:01～07:00,0.0560,0.0502,0.0532,
足立 (Adachi),2013-02-14,05:01～06:00,0.0569,0.0498,0.0533,
足立 (Adachi),2013-02-14,04:01～05:00,0.0566,0.0498,0.0530,
足立 (Adachi),2013-02-14,03:01～04:00,0.0567,0.0495,0.0531,
足立 (Adachi),2013-02-14,02:01～03:00,0.0575,0.0505,0.0531,
足立 (Adachi),2013-02-14,01:01～02:00,0.0574,0.0499,0.0539,
足立 (Adachi),2013-02-14,00:01～01:00,0.0563,0.0497,0.0533,
足立 (Adachi),2013-02-13,23:01～24:00,0.0592,0.0506,0.0537,
足立 (Adachi),2013-02-13,22:01～23:00,0.0579,0.0514,0.0542,
足立 (Adachi),2013-02-13,21:01～22:00,0.0578,0.0505,0.0539,
足立 (Adachi),2013-02-13,20:01～21:00,0.0569,0.0502,0.0540,
足立 (Adachi),2013-02-13,19:01～20:00,0.0589,0.0512,0.0543,
足立 (Adachi),2013-02-13,18:01～19:00,0.0568,0.0495,0.0538,
足立 (Adachi),2013-02-13,17:01～18:00,0.0567,0.0491,0.0532,
足立 (Adachi),2013-02-13,16:01～17:00,0.0573,0.0505,0.0531,
足立 (Adachi),2013-02-13,15:01～16:00,0.0578,0.0505,0.0533,
足立 (Adachi),2013-02-13,14:01～15:00,0.0563,0.0504,0.0535,
足立 (Adachi),2013-02-13,13:01～14:00,0.0575,0.0501,0.0533,
足立 (Adachi),2013-02-13,12:01～13:00,0.0562,0.0506,0.0530,
足立 (Adachi),2013-02-13,11:01～12:00,0.0584,0.0499,0.0537,
足立 (Adachi),2013-02-13,10:01～11:00,0.0561,0.0496,0.0533,
足立 (Adachi),2013-02-13,09:01～10:00,0.0565,0.0489,0.0515,
足立 (Adachi),2013-02-13,08:01～09:00,0.0530,0.0473,0.0503,
足立 (Adachi),2013-02-13,07:01～08:00,0.0556,0.0474,0.0509,
足立 (Adachi),2013-02-13,06:01～07:00,0.0633,0.0507,0.0569,
足立 (Adachi),2013-02-13,05:01～06:00,0.0660,0.0584,0.0620,
足立 (Adachi),2013-02-13,04:01～05:00,0.0702,0.0581,0.0644,
足立 (Adachi),2013-02-13,03:01～04:00,0.0711,0.0620,0.0662,
足立 (Adachi),2013-02-13,02:01～03:00,0.0688,0.0571,0.0624,
足立 (Adachi),2013-02-13,01:01～02:00,0.0602,0.0528,0.0567,
足立 (Adachi),2013-02-13,00:01～01:00,0.0591,0.0522,0.0556,
足立 (Adachi),2013-02-12,23:01～24:00,0.0584,0.0505,0.0551,
足立 (Adachi),2013-02-12,22:01～23:00,0.0578,0.0506,0.0549,
足立 (Adachi),2013-02-12,21:01～22:00,0.0583,0.0518,0.0552,
足立 (Adachi),2013-02-12,20:01～21:00,0.0568,0.0503,0.0542,
足立 (Adachi),2013-02-12,19:01～20:00,0.0595,0.0514,0.0547,
足立 (Adachi),2013-02-12,18:01～19:00,0.0593,0.0513,0.0548,
足立 (Adachi),2013-02-12,17:01～18:00,0.0585,0.0517,0.0547,
足立 (Adachi),2013-02-12,16:01～17:00,0.0591,0.0509,0.0547,
足立 (Adachi),2013-02-12,15:01～16:00,0.0589,0.0524,0.0550,
足立 (Adachi),2013-02-12,14:01～15:00,0.0583,0.0513,0.0547,
足立 (Adachi),2013-02-12,13:01～14:00,0.0581,0.0515,0.0546,
足立 (Adachi),2013-02-12,12:01～13:00,0.0578,0.0514,0.0547,
足立 (Adachi),2013-02-12,11:01～12:00,0.0594,0.0511,0.0549,
足立 (Adachi),2013-02-12,10:01～11:00,0.0603,0.0499,0.0549,
足立 (Adachi),2013-02-12,09:01～10:00,0.0582,0.0519,0.0547,
足立 (Adachi),2013-02-12,08:01～09:00,0.0584,0.0512,0.0545,
足立 (Adachi),2013-02-12,07:01～08:00,0.0570,0.0494,0.0535,
足立 (Adachi),2013-02-12,06:01～07:00,0.0587,0.0513,0.0548,
足立 (Adachi),2013-02-12,05:01～06:00,0.0591,0.0524,0.0553,
足立 (Adachi),2013-02-12,04:01～05:00,0.0585,0.0524,0.0552,
足立 (Adachi),2013-02-12,03:01～04:00,0.0581,0.0529,0.0557,
足立 (Adachi),2013-02-12,02:01～03:00,0.0591,0.0527,0.0555,
足立 (Adachi),2013-02-12,01:01～02:00,0.0583,0.0521,0.0554,
足立 (Adachi),2013-02-12,00:01～01:00,0.0584,0.0514,0.0553,
足立 (Adachi),2013-02-11,23:01～24:00,0.0583,0.0526,0.0556,
足立 (Adachi),2013-02-11,22:01～23:00,0.0594,0.0525,0.0561,
足立 (Adachi),2013-02-11,21:01～22:00,0.0604,0.0533,0.0559,
足立 (Adachi),2013-02-11,20:01～21:00,0.0590,0.0526,0.0557,
足立 (Adachi),2013-02-11,19:01～20:00,0.0585,0.0529,0.0557,
足立 (Adachi),2013-02-11,18:01～19:00,0.0608,0.0524,0.0560,
足立 (Adachi),2013-02-11,17:01～18:00,0.0595,0.0510,0.0559,
足立 (Adachi),2013-02-11,16:01～17:00,0.0613,0.0529,0.0558,
足立 (Adachi),2013-02-11,15:01～16:00,0.0598,0.0528,0.0560,
足立 (Adachi),2013-02-11,14:01～15:00,0.0586,0.0526,0.0562,
足立 (Adachi),2013-02-11,13:01～14:00,0.0598,0.0523,0.0562,
足立 (Adachi),2013-02-11,12:01～13:00,0.0592,0.0510,0.0556,
足立 (Adachi),2013-02-11,11:01～12:00,0.0587,0.0515,0.0554,
足立 (Adachi),2013-02-11,10:01～11:00,0.0606,0.0532,0.0562,
足立 (Adachi),2013-02-11,09:01～10:00,0.0602,0.0525,0.0560,
足立 (Adachi),2013-02-11,08:01～09:00,0.0592,0.0533,0.0558,
足立 (Adachi),2013-02-11,07:01～08:00,0.0589,0.0526,0.0558,
足立 (Adachi),2013-02-11,06:01～07:00,0.0612,0.0532,0.0562,
足立 (Adachi),2013-02-11,05:01～06:00,0.0603,0.0530,0.0559,
足立 (Adachi),2013-02-11,04:01～05:00,0.0595,0.0531,0.0561,
足立 (Adachi),2013-02-11,03:01～04:00,0.0590,0.0529,0.0560,
足立 (Adachi),2013-02-11,02:01～03:00,0.0588,0.0528,0.0560,
足立 (Adachi),2013-02-11,01:01～02:00,0.0591,0.0523,0.0557,
足立 (Adachi),2013-02-11,00:01～01:00,0.0598,0.0522,0.0560,
